Location: Emblem
(62.4273°N, 6.4710°E)
Time: 00:14:30
(UTC+02:00)

UWE-3 - Pass Details

Date: 21 March 2023
Orbit: 577 x 669 km, 97.7° (Epoch: 06 June)

Event Time Altitude Azimuth Distance (km) Brightness Sun altitude
Rises 02:13:01 0° 21° (NNE) 3,041 ? -25.2°
Reaches altitude 10° 02:16:01 10° 41° (NE) 2,117 ? -25.0°
Maximum altitude 02:19:05 17° 83° (E) 1,668 ? -24.9°
Enters shadow 02:21:51 11° 122° (ESE) 2,026 ? -24.7°
